This is the latest recevied weather packets stored in our database for station/object K0APR. If no packets are shown the sender has not sent any weather packets the latest 1 day(s).
| Time | Temp. | Humidity | Pressure | Rain* | Wind** | Luminosity | Snow |
|---|---|---|---|---|---|---|---|
| 1778014814 | 9.44° C | 39% | 1012.7 hPa | 0 mm | 6.71 m/s, 316° | 279 W/m² | - |
| 1778014512 | 8.89° C | 41% | 1012.3 hPa | 0 mm | 3.58 m/s, 327° | 237 W/m² | - |
| 1778014208 | 8.89° C | 40% | 1012 hPa | 0 mm | 7.6 m/s, 305° | 227 W/m² | - |
| 1778013906 | 9.44° C | 39% | 1012.3 hPa | 0 mm | 4.47 m/s, 297° | 273 W/m² | - |
| 1778013603 | 9.44° C | 41% | 1012.3 hPa | 0 mm | 2.24 m/s, 307° | 288 W/m² | - |
| 1778013299 | 9.44° C | 40% | 1012.3 hPa | 0 mm | 5.36 m/s, 311° | 290 W/m² | - |
| 1778012996 | 9.44° C | 39% | 1012.3 hPa | 0 mm | 5.81 m/s, 312° | 305 W/m² | - |
| 1778012693 | 9.44° C | 40% | 1012.3 hPa | 0 mm | 5.36 m/s, 334° | 316 W/m² | - |
| 1778012388 | 8.89° C | 40% | 1012.7 hPa | 0 mm | 8.05 m/s, 313° | 300 W/m² | - |
| 1778012086 | 9.44° C | 40% | 1012.7 hPa | 0 mm | 6.26 m/s, 310° | 265 W/m² | - |
| 1778011783 | 9.44° C | 40% | 1012.3 hPa | 0 mm | 4.47 m/s, 295° | 310 W/m² | - |
| 1778011481 | 9.44° C | 40% | 1012.3 hPa | 0 mm | 9.83 m/s, 313° | 292 W/m² | - |
| 1778011176 | 9.44° C | 41% | 1012.7 hPa | 0 mm | 7.6 m/s, 312° | 312 W/m² | - |
| 1778010874 | 9.44° C | 42% | 1012.7 hPa | 0 mm | 2.68 m/s, 291° | 306 W/m² | - |
| 1778010571 | 8.89° C | 41% | 1012.7 hPa | 0 mm | 7.6 m/s, 329° | 398 W/m² | - |
| 1778010268 | 8.89° C | 41% | 1012.3 hPa | 0 mm | 6.71 m/s, 310° | 302 W/m² | - |
| 1778009968 | 9.44° C | 42% | 1012.3 hPa | 0 mm | 6.26 m/s, 315° | 358 W/m² | - |
| 1778009666 | 8.89° C | 40% | 1012.3 hPa | 0 mm | 6.26 m/s, 312° | 318 W/m² | - |
| 1778009364 | 8.89° C | 40% | 1012 hPa | 0 mm | 8.05 m/s, 308° | 302 W/m² | - |
| 1778009062 | 9.44° C | 41% | 1012.3 hPa | 0 mm | 4.02 m/s, 329° | 302 W/m² | - |
| 1778008759 | 8.89° C | 41% | 1012.7 hPa | 0 mm | 5.36 m/s, 303° | 358 W/m² | - |
| 1778008458 | 9.44° C | 40% | 1012.7 hPa | 0 mm | 5.81 m/s, 335° | 343 W/m² | - |
| 1778008154 | 9.44° C | 41% | 1012.3 hPa | 0 mm | 4.02 m/s, 331° | 327 W/m² | - |
| 1778007850 | 8.89° C | 40% | 1012.3 hPa | 0 mm | 6.71 m/s, 319° | 288 W/m² | - |
| 1778007545 | 9.44° C | 40% | 1012.3 hPa | 0 mm | 4.02 m/s, 341° | 291 W/m² | - |
* Rain latest hour (hover to see other rain measurements)
** Current wind speed in m/s (hover to see current wind gust speed)